contact:dominique.lefevre@mio.osupytheas.fr, maurice.libes@osupytheas.fr, didier.mallarino@osupytheas.fr
Project:EMSO http://www.emso-fr.org/EMSO-France
Depth: 2436.0 m
Title:EMSO Ligure Ouest : Data MII capteur AQUADOPP
Date,Latitude,Longitude,X_East,Y_North,Z_Up,Amplitude_X,Amplitude_Y,Amplitude_Z,Batterie,SoundSpeed,Heading,Pitch,Roll,Pressure,TIS,Speed,Direction
, degrees North, degrees East, m.s-1, m.s-1,m.s-1, 1, 1, 1, Volt, m.s-1, degree, degree, degree, dbar, degree_C, m.s-1, degree
2021-12-04T00:04:03,42.805,6.029,-0.037,0.002,-0.023,100.0,100.0,99.0,13.3,1505.2,326.1,-0.8,1.8,2470.567,13.28,0.037,273.1
2021-12-04T00:07:03,42.805,6.029,-0.051,-0.007,-0.032,100.0,100.0,99.0,13.4,1505.2,324.8,-0.7,1.8,2470.502,13.28,0.051,262.2
2021-12-04T00:10:03,42.805,6.029,-0.054,0.016,-0.013,99.0,100.0,100.0,13.4,1505.2,332.0,-0.8,1.8,2470.52,13.28,0.056,286.5
2021-12-04T00:13:03,42.805,6.029,-0.033,-0.018,-0.034,100.0,99.0,99.0,13.4,1505.2,326.2,-0.7,1.8,2470.507,13.28,0.037,241.4
2021-12-04T00:16:03,42.805,6.029,-0.053,-0.01,-0.06,99.0,100.0,99.0,13.4,1505.2,325.2,-0.8,1.9,2470.527,13.28,0.053,259.3
2021-12-04T00:19:03,42.805,6.029,-0.043,0.007,-0.027,98.0,100.0,99.0,13.4,1505.2,331.2,-0.8,1.8,2470.52,13.28,0.043,279.2
2021-12-04T00:22:03,42.805,6.029,-0.055,-0.008,-0.043,100.0,101.0,99.0,13.4,1505.2,325.0,-0.7,1.8,2470.511,13.28,0.055,261.7
2021-12-04T00:25:03,42.805,6.029,-0.042,-0.006,-0.047,98.0,102.0,99.0,13.3,1505.2,326.7,-0.8,1.8,2470.533,13.28,0.042,261.9
2021-12-04T00:28:03,42.805,6.029,-0.055,-0.011,-0.058,100.0,99.0,100.0,13.4,1505.2,329.3,-0.7,1.8,2470.542,13.28,0.056,258.7
2021-12-04T00:31:03,42.805,6.029,-0.065,0.038,-0.037,101.0,99.0,99.0,13.4,1505.2,330.9,-0.7,1.8,2470.511,13.28,0.075,300.3
2021-12-04T00:34:03,42.805,6.029,-0.064,0.02,-0.047,100.0,100.0,99.0,13.4,1505.2,329.5,-0.7,1.8,2470.469,13.28,0.067,287.4
2021-12-04T00:37:03,42.805,6.029,-0.026,-0.001,-0.028,100.0,101.0,98.0,13.4,1505.2,330.8,-0.7,1.9,2470.489,13.28,0.026,267.8
2021-12-04T00:40:03,42.805,6.029,-0.043,-0.016,-0.077,99.0,99.0,99.0,13.4,1505.2,327.5,-0.7,1.8,2470.526,13.28,0.045,249.6
2021-12-04T00:43:03,42.805,6.029,-0.049,0.004,-0.037,100.0,100.0,99.0,13.4,1505.2,327.1,-0.8,1.8,2470.493,13.28,0.049,274.7
2021-12-04T00:46:03,42.805,6.029,-0.059,0.001,0.006,98.0,102.0,99.0,13.4,1505.2,329.0,-0.8,1.8,2470.52,13.28,0.059,271.0
2021-12-04T00:49:03,42.805,6.029,-0.053,-0.009,-0.053,100.0,100.0,99.0,13.3,1505.2,325.0,-0.7,1.8,2470.505,13.28,0.053,260.4
2021-12-04T00:52:03,42.805,6.029,-0.042,-0.011,-0.057,100.0,100.0,100.0,13.4,1505.2,326.8,-0.8,1.8,2470.482,13.28,0.043,255.3
2021-12-04T00:55:03,42.805,6.029,-0.015,-0.003,-0.017,100.0,100.0,99.0,13.4,1505.2,331.7,-0.8,1.8,2470.507,13.28,0.015,258.7
2021-12-04T00:58:03,42.805,6.029,-0.059,0.027,0.017,100.0,101.0,98.0,13.4,1505.2,325.0,-0.7,1.8,2470.515,13.28,0.064,294.6
2021-12-04T01:04:03,42.805,6.029,-0.078,0.029,-0.03,101.0,101.0,100.0,13.3,1505.2,327.9,-0.8,1.8,2470.546,13.28,0.083,290.4
2021-12-04T01:07:03,42.805,6.029,-0.049,0.001,-0.038,102.0,101.0,101.0,13.3,1505.2,329.0,-0.8,1.8,2470.504,13.28,0.049,271.2
2021-12-04T01:10:03,42.805,6.029,-0.056,0.009,-0.031,100.0,100.0,100.0,13.4,1505.2,329.6,-0.8,1.9,2470.554,13.28,0.056,279.1
2021-12-04T01:13:03,42.805,6.029,-0.035,-0.004,-0.013,100.0,100.0,99.0,13.4,1505.2,328.9,-0.7,1.8,2470.511,13.28,0.035,263.5
2021-12-04T01:16:03,42.805,6.029,-0.063,0.002,-0.012,100.0,99.0,100.0,13.4,1505.2,328.2,-0.7,1.8,2470.5,13.28,0.063,271.8
2021-12-04T01:19:03,42.805,6.029,-0.041,0.004,-0.012,99.0,100.0,99.0,13.3,1505.2,327.0,-0.7,1.8,2470.516,13.28,0.041,275.6
2021-12-04T01:22:03,42.805,6.029,-0.069,0.022,0.004,99.0,100.0,99.0,13.4,1505.2,331.2,-0.7,1.9,2470.477,13.28,0.072,287.7
2021-12-04T01:25:03,42.805,6.029,-0.051,0.014,-0.05,100.0,100.0,99.0,13.3,1505.2,331.2,-0.8,1.8,2470.477,13.28,0.052,285.3
2021-12-04T01:28:03,42.805,6.029,-0.076,0.011,-0.032,99.0,100.0,100.0,13.3,1505.2,328.6,-0.8,1.8,2470.487,13.28,0.076,278.2
2021-12-04T01:31:03,42.805,6.029,-0.05,0.014,-0.04,100.0,100.0,99.0,13.4,1505.2,326.2,-0.7,1.8,2470.493,13.28,0.051,285.6
2021-12-04T01:34:03,42.805,6.029,-0.071,0.001,-0.018,100.0,101.0,99.0,13.3,1505.2,329.0,-0.7,1.8,2470.483,13.28,0.071,270.8
2021-12-04T01:37:03,42.805,6.029,-0.056,0.004,-0.023,101.0,99.0,100.0,13.4,1505.2,329.0,-0.7,1.8,2470.515,13.28,0.056,274.1
2021-12-04T01:40:03,42.805,6.029,-0.067,0.031,0.021,101.0,99.0,100.0,13.4,1505.2,324.8,-0.8,1.8,2470.488,13.28,0.073,294.8
2021-12-04T01:43:03,42.805,6.029,-0.036,0.014,-0.028,99.0,101.0,99.0,13.4,1505.2,328.9,-0.7,1.8,2470.497,13.28,0.038,291.2
2021-12-04T01:46:03,42.805,6.029,-0.06,0.014,-0.006,100.0,100.0,100.0,13.4,1505.2,327.5,-0.7,1.8,2470.508,13.28,0.061,283.1
2021-12-04T01:49:03,42.805,6.029,-0.052,0.008,-0.027,99.0,101.0,100.0,13.3,1505.2,325.3,-0.8,1.8,2470.506,13.28,0.052,278.7
2021-12-04T01:52:03,42.805,6.029,-0.051,0.012,-0.028,100.0,100.0,101.0,13.4,1505.2,330.8,-0.7,1.8,2470.466,13.28,0.052,283.2
2021-12-04T01:55:03,42.805,6.029,-0.034,0.021,-0.015,101.0,99.0,99.0,13.3,1505.2,327.5,-0.7,1.8,2470.459,13.28,0.039,301.7
2021-12-04T01:58:03,42.805,6.029,-0.07,0.009,-0.023,99.0,100.0,101.0,13.4,1505.2,326.3,-0.8,1.8,2470.463,13.28,0.07,277.3
2021-12-04T02:04:03,42.805,6.029,-0.057,-0.027,-0.059,100.0,100.0,99.0,13.3,1505.2,330.0,-0.8,1.8,2470.532,13.28,0.063,244.7
2021-12-04T02:07:03,42.805,6.029,-0.062,0.012,-0.007,100.0,99.0,99.0,13.3,1505.2,328.7,-0.8,1.8,2470.515,13.28,0.063,281.0
2021-12-04T02:10:03,42.805,6.029,-0.058,0.001,-0.016,100.0,100.0,99.0,13.4,1505.2,328.8,-0.8,1.8,2470.548,13.28,0.058,271.0
2021-12-04T02:13:03,42.805,6.029,-0.016,-0.022,-0.047,100.0,100.0,99.0,13.4,1505.2,327.5,-0.7,1.8,2470.495,13.28,0.027,216.0
2021-12-04T02:16:03,42.805,6.029,-0.061,0.023,-0.011,99.0,101.0,99.0,13.3,1505.2,326.4,-0.7,1.8,2470.509,13.28,0.065,290.7
2021-12-04T02:19:03,42.805,6.029,-0.059,-0.012,-0.065,100.0,100.0,99.0,13.4,1505.2,326.9,-0.7,1.8,2470.484,13.28,0.06,258.5
2021-12-04T02:22:03,42.805,6.029,-0.054,0.023,-0.001,101.0,100.0,99.0,13.4,1505.2,330.0,-0.8,1.8,2470.49,13.28,0.058,293.1
2021-12-04T02:25:03,42.805,6.029,-0.041,0.015,-0.019,100.0,100.0,100.0,13.4,1505.2,324.9,-0.8,1.8,2470.533,13.28,0.043,290.1
2021-12-04T02:28:03,42.805,6.029,-0.046,-0.011,-0.025,102.0,99.0,99.0,13.4,1505.2,327.0,-0.7,1.8,2470.496,13.28,0.047,256.6
2021-12-04T02:31:03,42.805,6.029,-0.04,-0.016,-0.055,102.0,100.0,99.0,13.4,1505.2,328.6,-0.8,1.8,2470.48,13.28,0.043,248.2
2021-12-04T02:34:03,42.805,6.029,-0.077,0.018,-0.028,100.0,100.0,99.0,13.4,1505.2,326.4,-0.8,1.8,2470.451,13.28,0.079,283.2
2021-12-04T02:37:03,42.805,6.029,-0.047,-0.031,-0.062,101.0,100.0,99.0,13.4,1505.2,331.4,-0.8,1.8,2470.489,13.28,0.056,236.6
2021-12-04T02:40:03,42.805,6.029,-0.043,-0.004,-0.013,100.0,100.0,99.0,13.3,1505.2,325.0,-0.7,1.8,2470.464,13.28,0.043,264.7
2021-12-04T02:43:03,42.805,6.029,-0.064,-0.002,-0.018,100.0,100.0,99.0,13.4,1505.2,329.1,-0.8,1.8,2470.514,13.28,0.064,268.2
2021-12-04T02:46:03,42.805,6.029,-0.033,-0.002,-0.02,99.0,100.0,100.0,13.4,1505.2,324.5,-0.7,1.8,2470.482,13.28,0.033,266.5
2021-12-04T02:49:03,42.805,6.029,-0.068,0.004,-0.034,100.0,100.0,99.0,13.4,1505.2,326.2,-0.8,1.8,2470.528,13.28,0.068,273.4
2021-12-04T02:52:03,42.805,6.029,-0.069,0.018,-0.005,101.0,100.0,100.0,13.4,1505.2,325.4,-0.8,1.8,2470.524,13.28,0.071,284.6
2021-12-04T02:55:03,42.805,6.029,-0.049,0.006,-0.015,100.0,100.0,100.0,13.4,1505.2,327.9,-0.7,1.8,2470.517,13.28,0.049,277.0
2021-12-04T02:58:03,42.805,6.029,-0.055,0.0,-0.044,101.0,99.0,99.0,13.4,1505.2,330.7,-0.8,1.9,2470.481,13.28,0.055,270.0
2021-12-04T03:04:03,42.805,6.029,-0.054,0.018,-0.007,100.0,100.0,99.0,13.4,1505.2,331.2,-0.8,1.8,2470.502,13.28,0.056,288.4
2021-12-04T03:07:03,42.805,6.029,-0.032,-0.016,-0.056,100.0,99.0,100.0,13.4,1505.2,326.3,-0.8,1.8,2470.533,13.28,0.035,243.4
2021-12-04T03:10:03,42.805,6.029,-0.042,0.004,-0.046,99.0,99.0,100.0,13.3,1505.2,331.5,-0.7,1.8,2470.568,13.28,0.042,275.4
2021-12-04T03:13:03,42.805,6.029,-0.061,0.013,-0.044,99.0,100.0,100.0,13.4,1505.2,331.9,-0.8,1.9,2470.587,13.28,0.062,282.0
2021-12-04T03:16:03,42.805,6.029,-0.068,0.013,-0.051,101.0,99.0,99.0,13.4,1505.2,330.9,-0.7,1.8,2470.527,13.28,0.069,280.8
2021-12-04T03:19:03,42.805,6.029,-0.068,-0.015,-0.046,100.0,100.0,99.0,13.4,1505.2,328.1,-0.7,1.8,2470.528,13.28,0.069,257.6
2021-12-04T03:22:03,42.805,6.029,-0.058,-0.005,-0.037,100.0,101.0,99.0,13.4,1505.2,330.3,-0.8,1.8,2470.557,13.28,0.058,265.1
2021-12-04T03:25:03,42.805,6.029,-0.042,0.011,-0.03,101.0,100.0,100.0,13.4,1505.2,331.9,-0.8,1.8,2470.527,13.28,0.043,284.7
2021-12-04T03:28:03,42.805,6.029,-0.02,0.016,-0.008,100.0,100.0,100.0,13.4,1505.2,329.6,-0.7,1.8,2470.553,13.28,0.025,308.7
2021-12-04T03:31:03,42.805,6.029,-0.051,-0.01,-0.053,100.0,100.0,99.0,13.3,1505.2,330.4,-0.7,1.8,2470.574,13.28,0.051,258.9
2021-12-04T03:34:03,42.805,6.029,-0.044,-0.002,-0.032,99.0,100.0,99.0,13.3,1505.2,325.9,-0.7,1.8,2470.589,13.28,0.044,267.4
2021-12-04T03:37:03,42.805,6.029,-0.018,0.013,0.008,98.0,101.0,100.0,13.3,1505.2,326.8,-0.8,1.8,2470.579,13.28,0.022,305.8
2021-12-04T03:40:03,42.805,6.029,-0.07,0.0,-0.032,99.0,100.0,101.0,13.4,1505.2,329.8,-0.7,1.8,2470.535,13.28,0.069,270.0
2021-12-04T03:43:03,42.805,6.029,-0.032,-0.001,-0.017,99.0,100.0,100.0,13.4,1505.2,325.8,-0.8,1.8,2470.564,13.28,0.032,268.2
2021-12-04T03:46:03,42.805,6.029,-0.081,0.017,-0.043,100.0,100.0,99.0,13.4,1505.2,325.3,-0.8,1.8,2470.563,13.28,0.082,281.9
2021-12-04T03:49:03,42.805,6.029,-0.061,0.033,0.006,100.0,100.0,100.0,13.4,1505.2,329.2,-0.7,1.8,2470.561,13.28,0.069,298.4
2021-12-04T03:52:03,42.805,6.029,-0.051,-0.007,-0.025,100.0,99.0,99.0,13.4,1505.2,329.2,-0.8,1.8,2470.572,13.28,0.051,262.2
2021-12-04T03:55:03,42.805,6.029,-0.046,0.016,-0.015,100.0,99.0,99.0,13.4,1505.2,328.8,-0.7,1.8,2470.589,13.28,0.048,289.2
2021-12-04T03:58:03,42.805,6.029,-0.079,0.007,-0.033,99.0,101.0,98.0,13.3,1505.2,327.6,-0.8,1.9,2470.596,13.28,0.079,275.1
2021-12-04T04:04:03,42.805,6.029,-0.051,0.008,-0.01,100.0,99.0,99.0,13.4,1505.2,325.7,-0.8,1.8,2470.654,13.28,0.051,278.9
2021-12-04T04:07:03,42.805,6.029,-0.062,0.022,-0.01,98.0,98.0,100.0,13.3,1505.2,329.7,-0.7,1.8,2470.597,13.28,0.065,289.5
2021-12-04T04:10:03,42.805,6.029,-0.003,-0.038,-0.048,99.0,100.0,99.0,13.4,1505.2,328.1,-0.8,1.8,2470.65,13.28,0.038,184.5
2021-12-04T04:13:03,42.805,6.029,-0.061,-0.014,-0.048,99.0,100.0,99.0,13.4,1505.2,329.2,-0.8,1.8,2470.615,13.28,0.062,257.1
2021-12-04T04:16:03,42.805,6.029,-0.072,0.014,-0.032,99.0,99.0,100.0,13.4,1505.2,328.5,-0.8,1.8,2470.582,13.28,0.073,281.0
2021-12-04T04:19:03,42.805,6.029,-0.055,-0.003,-0.032,100.0,100.0,100.0,13.4,1505.2,327.7,-0.8,1.8,2470.598,13.28,0.055,266.9
2021-12-04T04:22:03,42.805,6.029,-0.028,-0.013,-0.058,101.0,101.0,98.0,13.3,1505.2,327.3,-0.7,1.8,2470.61,13.28,0.03,245.1
2021-12-04T04:25:03,42.805,6.029,-0.056,0.012,-0.03,99.0,101.0,99.0,13.4,1505.2,327.4,-0.8,1.8,2470.608,13.28,0.057,282.1
2021-12-04T04:28:03,42.805,6.029,-0.051,0.0,-0.03,99.0,99.0,100.0,13.4,1505.2,327.0,-0.7,1.8,2470.622,13.28,0.051,270.0
2021-12-04T04:31:03,42.805,6.029,-0.012,0.004,-0.029,102.0,99.0,98.0,13.4,1505.2,330.1,-0.8,1.8,2470.59,13.28,0.012,288.4
2021-12-04T04:34:03,42.805,6.029,-0.04,-0.006,-0.022,101.0,100.0,99.0,13.3,1505.2,324.9,-0.8,1.8,2470.598,13.28,0.04,261.5
2021-12-04T04:37:03,42.805,6.029,-0.067,0.007,-0.074,100.0,99.0,100.0,13.4,1505.2,328.4,-0.7,1.9,2470.648,13.28,0.067,276.0
2021-12-04T04:40:03,42.805,6.029,-0.027,0.006,0.005,99.0,99.0,100.0,13.4,1505.2,329.4,-0.8,1.8,2470.63,13.28,0.027,282.5
2021-12-04T04:43:03,42.805,6.029,-0.067,-0.005,-0.052,100.0,100.0,99.0,13.3,1505.2,325.9,-0.8,1.8,2470.647,13.28,0.067,265.7
2021-12-04T04:46:03,42.805,6.029,-0.06,-0.001,-0.055,99.0,99.0,99.0,13.3,1505.2,326.8,-0.8,1.8,2470.675,13.28,0.06,269.0
2021-12-04T04:49:03,42.805,6.029,-0.055,-0.014,-0.052,100.0,99.0,98.0,13.4,1505.2,325.1,-0.7,1.8,2470.634,13.28,0.056,255.7
2021-12-04T04:52:03,42.805,6.029,-0.046,-0.006,-0.04,101.0,99.0,98.0,13.4,1505.2,331.2,-0.7,1.8,2470.63,13.28,0.046,262.6
2021-12-04T04:55:03,42.805,6.029,-0.043,0.016,-0.015,99.0,101.0,100.0,13.4,1505.2,324.7,-0.7,1.8,2470.67,13.28,0.045,290.4
2021-12-04T04:58:03,42.805,6.029,-0.041,-0.003,-0.035,99.0,100.0,100.0,13.4,1505.2,325.1,-0.8,1.8,2470.657,13.28,0.041,265.8
2021-12-04T05:04:03,42.805,6.029,-0.053,-0.004,-0.023,99.0,99.0,99.0,13.4,1505.2,324.4,-0.8,1.8,2470.647,13.28,0.053,265.7
2021-12-04T05:07:03,42.805,6.029,-0.038,-0.01,-0.024,100.0,101.0,99.0,13.3,1505.2,325.2,-0.8,1.8,2470.696,13.28,0.039,255.3
2021-12-04T05:10:03,42.805,6.029,-0.045,0.0,-0.031,99.0,100.0,99.0,13.3,1505.2,329.3,-0.8,1.8,2470.707,13.28,0.045,270.0
2021-12-04T05:13:03,42.805,6.029,-0.044,-0.007,-0.04,99.0,100.0,99.0,13.4,1505.2,328.1,-0.8,1.8,2470.702,13.28,0.044,261.0
2021-12-04T05:16:03,42.805,6.029,-0.036,0.0,-0.005,101.0,99.0,100.0,13.3,1505.2,329.0,-0.7,1.8,2470.68,13.28,0.036,270.0
2021-12-04T05:19:03,42.805,6.029,-0.031,-0.024,-0.04,99.0,100.0,99.0,13.3,1505.2,327.1,-0.8,1.8,2470.627,13.28,0.039,232.3
2021-12-04T05:22:03,42.805,6.029,-0.023,-0.007,-0.028,99.0,99.0,99.0,13.4,1505.2,329.1,-0.8,1.9,2470.688,13.28,0.024,253.1
2021-12-04T05:25:03,42.805,6.029,-0.056,0.003,-0.04,99.0,100.0,99.0,13.4,1505.2,324.7,-0.7,1.8,2470.666,13.28,0.056,273.1
2021-12-04T05:28:03,42.805,6.029,-0.039,-0.004,-0.058,100.0,100.0,99.0,13.4,1505.2,331.7,-0.7,1.8,2470.673,13.28,0.039,264.1
2021-12-04T05:31:03,42.805,6.029,-0.062,0.023,-0.018,100.0,100.0,100.0,13.4,1505.2,329.9,-0.7,1.8,2470.653,13.28,0.066,290.3
2021-12-04T05:34:03,42.805,6.029,-0.062,0.012,-0.041,100.0,99.0,99.0,13.4,1505.2,324.5,-0.8,1.8,2470.644,13.28,0.063,281.0
2021-12-04T05:37:03,42.805,6.029,-0.039,-0.002,-0.019,100.0,101.0,99.0,13.4,1505.2,327.1,-0.8,1.8,2470.653,13.28,0.039,267.1
2021-12-04T05:40:03,42.805,6.029,-0.045,-0.009,-0.054,100.0,100.0,99.0,13.4,1505.2,329.1,-0.8,1.8,2470.68,13.28,0.045,258.7
2021-12-04T05:43:03,42.805,6.029,-0.041,-0.002,-0.03,100.0,99.0,99.0,13.4,1505.2,331.0,-0.7,1.9,2470.666,13.28,0.041,267.2
2021-12-04T05:46:03,42.805,6.029,-0.08,0.03,0.0,99.0,100.0,99.0,13.4,1505.2,331.4,-0.8,1.9,2470.603,13.28,0.085,290.6
2021-12-04T05:49:03,42.805,6.029,-0.043,0.016,0.006,100.0,99.0,100.0,13.3,1505.2,331.2,-0.7,1.8,2470.662,13.28,0.045,290.4
2021-12-04T05:52:03,42.805,6.029,-0.062,0.002,-0.034,100.0,100.0,99.0,13.4,1505.2,327.7,-0.7,1.8,2470.661,13.28,0.062,271.8
2021-12-04T05:55:03,42.805,6.029,-0.03,-0.009,0.0,99.0,101.0,99.0,13.4,1505.2,326.9,-0.7,1.8,2470.669,13.28,0.031,253.3
2021-12-04T05:58:03,42.805,6.029,-0.045,0.0,-0.057,102.0,97.0,100.0,13.4,1505.2,327.0,-0.8,1.8,2470.703,13.28,0.045,270.0
2021-12-04T06:04:03,42.805,6.029,-0.055,0.005,-0.031,100.0,100.0,99.0,13.3,1505.2,331.2,-0.8,1.8,2470.69,13.28,0.055,275.2
2021-12-04T06:07:03,42.805,6.029,-0.059,0.008,-0.019,100.0,99.0,99.0,13.4,1505.2,327.7,-0.7,1.8,2470.703,13.28,0.059,277.7
2021-12-04T06:10:03,42.805,6.029,-0.017,0.004,-0.02,100.0,100.0,99.0,13.4,1505.2,327.6,-0.7,1.8,2470.691,13.28,0.017,283.2
2021-12-04T06:13:03,42.805,6.029,-0.032,-0.014,-0.019,100.0,101.0,99.0,13.4,1505.2,329.3,-0.8,1.8,2470.699,13.28,0.034,246.4
2021-12-04T06:16:03,42.805,6.029,-0.054,0.01,-0.016,100.0,99.0,101.0,13.3,1505.2,329.5,-0.8,1.8,2470.714,13.28,0.054,280.5
2021-12-04T06:19:03,42.805,6.029,-0.034,-0.007,-0.021,101.0,100.0,99.0,13.3,1505.2,327.4,-0.8,1.8,2470.699,13.28,0.034,258.4
2021-12-04T06:22:03,42.805,6.029,-0.046,-0.013,-0.021,100.0,100.0,99.0,13.4,1505.2,326.3,-0.7,1.8,2470.728,13.28,0.047,254.2
2021-12-04T06:25:03,42.805,6.029,-0.037,0.003,-0.009,100.0,100.0,99.0,13.4,1505.2,330.7,-0.7,1.8,2470.704,13.28,0.037,274.6
2021-12-04T06:28:03,42.805,6.029,-0.064,0.001,-0.05,100.0,100.0,99.0,13.4,1505.2,329.4,-0.8,1.8,2470.696,13.28,0.064,270.9
2021-12-04T06:31:03,42.805,6.029,-0.047,-0.002,-0.047,100.0,100.0,100.0,13.4,1505.2,326.3,-0.8,1.8,2470.715,13.28,0.047,267.6
2021-12-04T06:34:03,42.805,6.029,-0.043,0.011,-0.01,99.0,100.0,100.0,13.3,1505.2,329.5,-0.8,1.8,2470.695,13.28,0.044,284.3
2021-12-04T06:37:03,42.805,6.029,-0.063,-0.001,-0.041,101.0,100.0,99.0,13.3,1505.2,329.3,-0.8,1.8,2470.73,13.28,0.063,269.1
2021-12-04T06:40:03,42.805,6.029,-0.036,-0.02,-0.038,101.0,99.0,99.0,13.4,1505.2,325.7,-0.8,1.8,2470.706,13.28,0.041,240.9
2021-12-04T06:43:03,42.805,6.029,-0.024,0.016,-0.014,100.0,100.0,99.0,13.4,1505.2,329.3,-0.7,1.9,2470.739,13.28,0.028,303.7
2021-12-04T06:46:02,42.805,6.029,-0.012,-0.018,-0.015,100.0,100.0,99.0,13.3,1505.2,330.2,-0.8,1.8,2470.724,13.28,0.021,213.7
2021-12-04T06:49:02,42.805,6.029,-0.044,0.003,-0.035,101.0,100.0,99.0,13.3,1505.2,330.2,-0.7,1.8,2470.698,13.28,0.044,273.9
2021-12-04T06:52:02,42.805,6.029,-0.065,0.011,-0.008,100.0,99.0,100.0,13.4,1505.2,327.1,-0.8,1.9,2470.713,13.28,0.065,279.6
2021-12-04T06:55:03,42.805,6.029,-0.048,0.01,-0.031,100.0,100.0,99.0,13.3,1505.2,329.3,-0.8,1.8,2470.687,13.28,0.049,281.8
2021-12-04T06:58:02,42.805,6.029,-0.043,0.004,0.002,100.0,100.0,99.0,13.4,1505.2,329.6,-0.8,1.8,2470.706,13.28,0.043,275.3
2021-12-04T07:04:02,42.805,6.029,-0.043,0.003,-0.016,100.0,99.0,100.0,13.3,1505.2,329.1,-0.8,1.8,2470.736,13.28,0.043,274.0
2021-12-04T07:07:02,42.805,6.029,-0.045,0.033,-0.003,100.0,99.0,99.0,13.3,1505.2,330.7,-0.7,1.8,2470.737,13.28,0.055,306.3
2021-12-04T07:10:02,42.805,6.029,-0.048,0.022,0.014,100.0,99.0,99.0,13.4,1505.2,328.4,-0.7,1.8,2470.719,13.28,0.052,294.6
2021-12-04T07:13:02,42.805,6.029,-0.041,-0.013,-0.038,100.0,100.0,99.0,13.3,1505.2,331.1,-0.7,1.8,2470.718,13.28,0.043,252.4
2021-12-04T07:16:03,42.805,6.029,-0.055,-0.008,-0.032,100.0,100.0,99.0,13.4,1505.2,324.8,-0.8,1.8,2470.689,13.28,0.055,261.7
2021-12-04T07:19:02,42.805,6.029,-0.058,-0.012,-0.065,102.0,98.0,100.0,13.4,1505.2,329.7,-0.7,1.8,2470.731,13.28,0.059,258.3
2021-12-04T07:22:02,42.805,6.029,-0.04,-0.001,-0.031,97.0,100.0,101.0,13.3,1505.2,326.1,-0.8,1.8,2470.744,13.28,0.04,268.6
2021-12-04T07:25:02,42.805,6.029,-0.037,0.025,-0.002,100.0,100.0,99.0,13.4,1505.2,329.3,-0.8,1.8,2470.739,13.28,0.044,304.0
2021-12-04T07:28:03,42.805,6.029,-0.039,0.01,-0.007,101.0,99.0,100.0,13.4,1505.2,329.5,-0.8,1.8,2470.698,13.28,0.04,284.4
2021-12-04T07:31:02,42.805,6.029,-0.039,0.012,-0.02,100.0,99.0,100.0,13.3,1505.2,328.9,-0.8,1.8,2470.717,13.28,0.04,287.1
2021-12-04T07:34:02,42.805,6.029,-0.048,0.016,-0.021,100.0,101.0,99.0,13.4,1505.2,329.0,-0.8,1.8,2470.687,13.28,0.05,288.4
2021-12-04T07:37:02,42.805,6.029,-0.041,-0.019,-0.031,101.0,100.0,99.0,13.4,1505.2,325.7,-0.7,1.8,2470.701,13.28,0.045,245.1
2021-12-04T07:40:02,42.805,6.029,-0.047,-0.007,-0.056,102.0,98.0,99.0,13.3,1505.2,330.2,-0.7,1.8,2470.671,13.28,0.047,261.5
2021-12-04T07:43:03,42.805,6.029,-0.055,0.003,-0.057,98.0,100.0,100.0,13.3,1505.2,329.1,-0.7,1.8,2470.687,13.28,0.055,273.1
2021-12-04T07:46:02,42.805,6.029,-0.056,0.016,-0.004,99.0,100.0,100.0,13.4,1505.2,330.9,-0.8,1.8,2470.695,13.28,0.058,285.9
2021-12-04T07:49:02,42.805,6.029,-0.027,-0.007,-0.02,99.0,99.0,100.0,13.4,1505.2,330.5,-0.7,1.8,2470.653,13.28,0.027,255.5
2021-12-04T07:52:02,42.805,6.029,-0.028,-0.016,-0.026,100.0,100.0,100.0,13.3,1505.2,330.5,-0.7,1.8,2470.693,13.28,0.032,240.3
2021-12-04T07:55:03,42.805,6.029,-0.06,-0.009,-0.047,99.0,100.0,101.0,13.4,1505.2,326.9,-0.8,1.8,2470.696,13.28,0.06,261.5
2021-12-04T07:58:02,42.805,6.029,0.0,-0.008,-0.047,100.0,98.0,100.0,13.3,1505.2,329.4,-0.8,1.8,2470.663,13.28,0.008,180.0
2021-12-04T08:04:02,42.805,6.029,-0.038,-0.004,-0.01,100.0,100.0,99.0,13.4,1505.2,327.2,-0.8,1.8,2470.674,13.28,0.038,264.0
2021-12-04T08:07:02,42.805,6.029,-0.05,-0.008,-0.047,101.0,99.0,99.0,13.4,1505.2,328.3,-0.8,1.8,2470.695,13.28,0.05,260.9
2021-12-04T08:10:02,42.805,6.029,-0.044,0.01,-0.025,100.0,99.0,100.0,13.4,1505.2,327.0,-0.8,1.8,2470.69,13.28,0.045,282.8
2021-12-04T08:13:03,42.805,6.029,-0.054,0.0,-0.026,100.0,100.0,99.0,13.4,1505.2,329.2,-0.8,1.8,2470.693,13.28,0.053,270.0
2021-12-04T08:16:03,42.805,6.029,-0.028,-0.015,-0.001,100.0,99.0,100.0,13.4,1505.2,325.5,-0.7,1.8,2470.657,13.28,0.031,241.8
2021-12-04T08:19:03,42.805,6.029,-0.027,0.012,0.004,100.0,102.0,98.0,13.3,1505.2,327.5,-0.8,1.8,2470.698,13.28,0.029,294.0
2021-12-04T08:22:02,42.805,6.029,-0.032,-0.002,-0.017,100.0,100.0,100.0,13.4,1505.2,328.9,-0.8,1.8,2470.658,13.28,0.032,266.4
2021-12-04T08:25:02,42.805,6.029,-0.053,-0.01,-0.027,101.0,100.0,98.0,13.4,1505.2,324.5,-0.7,1.8,2470.632,13.28,0.053,259.3
2021-12-04T08:28:03,42.805,6.029,-0.046,-0.012,-0.052,99.0,100.0,99.0,13.4,1505.2,325.0,-0.8,1.8,2470.661,13.28,0.047,255.4
2021-12-04T08:31:03,42.805,6.029,-0.017,-0.03,-0.038,100.0,100.0,99.0,13.4,1505.2,328.2,-0.8,1.8,2470.671,13.28,0.034,209.5
2021-12-04T08:34:02,42.805,6.029,-0.047,0.008,-0.017,101.0,100.0,98.0,13.3,1505.2,331.3,-0.7,1.9,2470.651,13.28,0.047,279.7
2021-12-04T08:37:02,42.805,6.029,-0.056,-0.008,-0.04,100.0,100.0,99.0,13.4,1505.2,331.6,-0.8,1.8,2470.641,13.28,0.056,261.9
2021-12-04T08:40:03,42.805,6.029,-0.034,-0.022,-0.019,100.0,100.0,100.0,13.3,1505.2,328.2,-0.7,1.8,2470.656,13.28,0.04,237.1
2021-12-04T08:43:03,42.805,6.029,-0.038,0.009,-0.029,101.0,100.0,99.0,13.3,1505.2,329.4,-0.8,1.8,2470.679,13.28,0.039,283.3
2021-12-04T08:46:03,42.805,6.029,-0.016,0.008,0.009,100.0,100.0,99.0,13.4,1505.2,326.3,-0.8,1.8,2470.614,13.28,0.017,296.6
2021-12-04T08:49:03,42.805,6.029,-0.061,-0.008,-0.013,100.0,100.0,99.0,13.3,1505.2,331.6,-0.8,1.8,2470.629,13.28,0.061,262.5
2021-12-04T08:52:02,42.805,6.029,-0.051,-0.009,-0.013,101.0,100.0,100.0,13.4,1505.2,327.0,-0.8,1.8,2470.656,13.28,0.051,260.0
2021-12-04T08:55:03,42.805,6.029,-0.039,0.001,-0.023,100.0,99.0,100.0,13.4,1505.2,331.2,-0.7,1.8,2470.665,13.28,0.039,271.5
2021-12-04T08:58:03,42.805,6.029,-0.041,-0.014,-0.051,100.0,100.0,100.0,13.4,1505.2,329.5,-0.8,1.8,2470.693,13.28,0.043,251.1
2021-12-04T09:04:02,42.805,6.029,-0.038,0.03,-0.002,100.0,99.0,99.0,13.4,1505.2,327.1,-0.7,1.8,2470.715,13.28,0.048,308.3
2021-12-04T09:07:02,42.805,6.029,-0.058,0.011,-0.035,102.0,99.0,98.0,13.4,1505.2,331.4,-0.8,1.9,2470.652,13.28,0.059,280.7
2021-12-04T09:10:03,42.805,6.029,-0.066,0.015,-0.035,97.0,100.0,100.0,13.4,1505.2,329.8,-0.8,1.8,2470.722,13.28,0.067,282.8
2021-12-04T09:13:03,42.805,6.029,-0.048,-0.013,-0.068,100.0,100.0,98.0,13.4,1505.2,326.3,-0.7,1.8,2470.671,13.28,0.049,254.8
2021-12-04T09:16:03,42.805,6.029,-0.023,-0.019,-0.036,100.0,101.0,99.0,13.4,1505.2,324.5,-0.8,1.8,2470.689,13.28,0.029,230.4
2021-12-04T09:19:03,42.805,6.029,-0.029,0.003,0.0,102.0,98.0,99.0,13.4,1505.2,324.9,-0.8,1.8,2470.652,13.28,0.029,275.9
2021-12-04T09:22:02,42.805,6.029,-0.055,0.006,-0.011,100.0,100.0,99.0,13.4,1505.2,325.4,-0.7,1.8,2470.631,13.28,0.055,276.2
2021-12-04T09:25:03,42.805,6.029,-0.046,-0.028,-0.039,101.0,100.0,99.0,13.4,1505.2,325.8,-0.7,1.8,2470.683,13.28,0.053,238.7
2021-12-04T09:28:03,42.805,6.029,-0.063,0.001,-0.041,100.0,101.0,100.0,13.4,1505.2,325.2,-0.8,1.8,2470.657,13.28,0.063,270.9
2021-12-04T09:31:03,42.805,6.029,-0.037,-0.004,-0.021,100.0,99.0,100.0,13.4,1505.2,331.2,-0.8,1.8,2470.623,13.28,0.037,263.8
2021-12-04T09:34:03,42.805,6.029,-0.025,-0.001,-0.047,99.0,99.0,101.0,13.4,1505.2,326.4,-0.7,1.8,2470.629,13.28,0.025,267.7
2021-12-04T09:37:02,42.805,6.029,-0.036,-0.008,-0.008,101.0,100.0,98.0,13.4,1505.2,328.7,-0.8,1.8,2470.639,13.28,0.036,257.5
2021-12-04T09:40:03,42.805,6.029,-0.016,-0.015,-0.023,100.0,100.0,99.0,13.3,1505.2,330.4,-0.7,1.8,2470.623,13.28,0.021,226.9
2021-12-04T09:43:03,42.805,6.029,-0.054,0.019,-0.006,101.0,99.0,99.0,13.4,1505.2,327.6,-0.8,1.8,2470.632,13.28,0.057,289.4
2021-12-04T09:46:03,42.805,6.029,-0.041,-0.021,-0.032,100.0,100.0,99.0,13.3,1505.2,326.0,-0.7,1.8,2470.614,13.28,0.046,242.9
2021-12-04T09:49:03,42.805,6.029,-0.026,-0.004,-0.039,100.0,99.0,99.0,13.4,1505.2,328.0,-0.7,1.8,2470.637,13.28,0.026,261.3
2021-12-04T09:52:02,42.805,6.029,-0.065,0.0,-0.052,100.0,100.0,99.0,13.4,1505.2,331.0,-0.7,1.8,2470.628,13.28,0.064,270.0
2021-12-04T09:55:03,42.805,6.029,-0.051,-0.011,-0.061,100.0,100.0,99.0,13.3,1505.2,325.2,-0.7,1.8,2470.633,13.28,0.052,257.8
2021-12-04T09:58:03,42.805,6.029,-0.026,0.004,-0.009,100.0,99.0,99.0,13.3,1505.2,331.2,-0.8,1.8,2470.643,13.28,0.026,278.7